Location: Mentone
(34.5413°N, 85.5351°W)
Time: 13:32:00
(UTC-05:00)

Tiros 1 despin weight - Visible Passes

Search period start: 19 August 2017 00:00
Search period end: 29 August 2017 00:00
Orbit: 595 x 644 km, 48.2° (Epoch: 19 August)

Date Brightness Start Highest point End Pass type
(mag) Time Alt. Az. Time Alt. Az. Time Alt. Az.
19 Aug ? 20:44:44 10° NW 20:47:41 17° NNW 20:50:40 10° NNE visible
19 Aug ? 22:28:03 10° NNW 22:30:42 15° N 22:30:44 15° N visible
20 Aug ? 21:02:44 10° NW 21:05:13 14° N 21:07:42 10° NNE visible
20 Aug ? 22:45:00 10° NNW 22:46:39 16° N 22:46:39 16° N visible
21 Aug ? 21:20:21 10° NNW 21:22:46 14° N 21:25:12 10° NE visible
21 Aug ? 23:01:45 10° NW 23:02:34 14° NNW 23:02:34 14° NNW visible
22 Aug ? 19:54:36 10° NW 19:57:18 15° N 19:59:59 10° NNE visible
22 Aug ? 21:37:29 10° NNW 21:40:18 16° NNE 21:41:25 15° NNE visible
23 Aug ? 20:12:29 10° NNW 20:14:51 14° N 20:17:12 10° NNE visible
23 Aug ? 21:54:18 10° NNW 21:57:21 21° NNE 21:57:21 21° NNE visible
24 Aug ? 20:29:53 10° NNW 20:32:24 15° N 20:34:55 10° NE visible
24 Aug ? 22:11:02 10° NW 22:13:18 23° NNW 22:13:18 23° NNW visible
25 Aug ? 20:46:50 10° NNW 20:49:53 18° NNE 20:52:13 13° NE visible
25 Aug ? 22:27:48 10° NW 22:29:17 20° NW 22:29:17 20° NW visible
26 Aug ? 21:03:36 10° NNW 21:07:17 24° NNE 21:08:13 23° NE visible
26 Aug ? 22:44:43 10° NW 22:45:17 13° NW 22:45:17 13° NW visible
27 Aug ? 19:39:19 10° NNW 19:42:00 16° N 19:44:43 10° NE visible
27 Aug ? 21:20:19 10° NW 21:24:15 38° NNE 21:24:15 38° NNE visible
28 Aug ? 19:56:08 10° NNW 19:59:27 20° NNE 20:02:48 10° ENE visible
28 Aug ? 21:37:08 10° NW 21:40:21 45° NW 21:40:21 45° NW visible
